When you browse on this site, cookies collect data to enhance your experience and personalize the content and advertising you see.
Visit our Privacy Policy to learn more. By continuing to use the site, you agree to this use of cookies and data.
  • în România
  • Lista ţărilor
  • Pe 7 zile
  • Temperatura apei
  • Meteo pe hartă
  • Widget-uri
  • user-avatar
    Intrare

    Meteo pe oră la Aylesbury

    Astăzi, 28 Februarie, Vineri

    Timp Temperatura Precipitaţii Vânt Presiune Umiditate
    00:00 0°C° 0 mm 3 m/s 752 mmHg 88%
    01:00 0°C° 0 mm 3 m/s 752 mmHg 87%
    02:00 0°C° 0 mm 3 m/s 752 mmHg 86%
    03:00 0°C° 0 mm 3 m/s 752 mmHg 85%
    04:00 0°C° 0 mm 3 m/s 751 mmHg 85%
    05:00 +1°C° 0 mm 3 m/s 751 mmHg 84%
    06:00 +1°C° 0 mm 3 m/s 751 mmHg 85%
    07:00 +1°C° 0.3 mm 5 m/s 750 mmHg 88%
    08:00 +1°C° 0.3 mm 6 m/s 749 mmHg 91%
    09:00 +2°C° 0.3 mm 7 m/s 748 mmHg 94%
    10:00 +2°C° 1.4 mm 8 m/s 747 mmHg 94%
    11:00 +2°C° 1.4 mm 9 m/s 745 mmHg 94%
    12:00 +3°C° 1.4 mm 9 m/s 744 mmHg 93%
    13:00 +5°C° 1.9 mm 9 m/s 743 mmHg 94%
    14:00 +6°C° 1.9 mm 8 m/s 742 mmHg 94%
    15:00 +9°C° 1.9 mm 8 m/s 741 mmHg 95%
    16:00 +9°C° 0.1 mm 8 m/s 740 mmHg 93%
    17:00 +9°C° 0.1 mm 8 m/s 740 mmHg 91%
    18:00 +9°C° 0.1 mm 8 m/s 739 mmHg 89%
    19:00 +9°C° 0.2 mm 8 m/s 739 mmHg 90%
    20:00 +8°C° 0.2 mm 9 m/s 738 mmHg 90%
    21:00 +8°C° 0.2 mm 10 m/s 738 mmHg 90%
    22:00 +8°C° 0 mm 10 m/s 737 mmHg 89%
    23:00 +8°C° 0 mm 10 m/s 736 mmHg 88%

    Mâine, 29 Februarie, Sâmbătă

    Timp Temperatura Precipitaţii Vânt Presiune Umiditate
    00:00 +8°C° 0 mm 10 m/s 735 mmHg 87%
    01:00 +8°C° 0.1 mm 11 m/s 734 mmHg 87%
    02:00 +8°C° 0.1 mm 11 m/s 732 mmHg 86%
    03:00 +8°C° 0.1 mm 11 m/s 731 mmHg 86%
    04:00 +7°C° 0.8 mm 12 m/s 730 mmHg 87%
    05:00 +7°C° 0.8 mm 12 m/s 729 mmHg 87%
    06:00 +5°C° 0.8 mm 12 m/s 728 mmHg 88%
    07:00 +4°C° 1.4 mm 11 m/s 728 mmHg 86%
    08:00 +3°C° 1.4 mm 10 m/s 728 mmHg 84%
    09:00 +2°C° 1.4 mm 8 m/s 728 mmHg 82%
    10:00 +2°C° 0.2 mm 9 m/s 729 mmHg 76%
    11:00 +2°C° 0.2 mm 10 m/s 730 mmHg 71%
    12:00 +2°C° 0.2 mm 10 m/s 731 mmHg 66%
    13:00 +2°C° 0.2 mm 11 m/s 731 mmHg 66%
    14:00 +2°C° 0.2 mm 11 m/s 731 mmHg 65%
    15:00 +2°C° 0.2 mm 11 m/s 731 mmHg 65%
    16:00 +1°C° 0 mm 10 m/s 731 mmHg 67%
    17:00 +1°C° 0 mm 9 m/s 731 mmHg 68%
    18:00 0°C° 0 mm 8 m/s 731 mmHg 70%
    19:00 0°C° 0 mm 8 m/s 731 mmHg 71%
    20:00 0°C° 0 mm 8 m/s 731 mmHg 71%
    21:00 0°C° 0 mm 8 m/s 732 mmHg 72%
    22:00 -1°C° 0 mm 8 m/s 732 mmHg 73%
    23:00 -1°C° 0 mm 9 m/s 732 mmHg 74%

    Poimâine, 1 Martie, Duminică

    Timp Temperatura Precipitaţii Vânt Presiune Umiditate
    00:00 -1°C° 0 mm 9 m/s 732 mmHg 76%
    01:00 -1°C° 0 mm 8 m/s 732 mmHg 76%
    02:00 -1°C° 0 mm 8 m/s 732 mmHg 76%
    03:00 0°C° 0 mm 8 m/s 732 mmHg 76%
    04:00 -1°C° 0 mm 8 m/s 732 mmHg 77%
    05:00 -1°C° 0 mm 8 m/s 732 mmHg 78%
    06:00 -1°C° 0 mm 8 m/s 732 mmHg 79%
    07:00 0°C° 0 mm 8 m/s 732 mmHg 80%
    08:00 0°C° 0 mm 9 m/s 732 mmHg 81%
    09:00 +1°C° 0 mm 9 m/s 732 mmHg 82%
    10:00 +2°C° 0.1 mm 9 m/s 733 mmHg 77%
    11:00 +2°C° 0.1 mm 9 m/s 733 mmHg 72%
    12:00 +3°C° 0.1 mm 9 m/s 733 mmHg 67%
    13:00 +5°C° 0.1 mm 9 m/s 732 mmHg 66%
    14:00 +5°C° 0.1 mm 9 m/s 732 mmHg 65%
    15:00 +5°C° 0.1 mm 9 m/s 732 mmHg 64%
    16:00 +4°C° 0 mm 7 m/s 732 mmHg 68%
    17:00 +3°C° 0 mm 6 m/s 732 mmHg 72%
    18:00 +1°C° 0 mm 5 m/s 732 mmHg 77%
    19:00 +1°C° 0 mm 5 m/s 732 mmHg 79%
    20:00 +1°C° 0 mm 5 m/s 732 mmHg 81%
    21:00 0°C° 0 mm 5 m/s 732 mmHg 83%
    22:00 0°C° 0 mm 5 m/s 732 mmHg 84%
    23:00 0°C° 0 mm 4 m/s 732 mmHg 85%

    2 Martie, Luni

    Timp Temperatura Precipitaţii Vânt Presiune Umiditate
    00:00 -1°C° 0 mm 4 m/s 732 mmHg 86%
    01:00 -1°C° 0 mm 4 m/s 732 mmHg 87%
    02:00 -1°C° 0 mm 4 m/s 732 mmHg 87%
    03:00 -1°C° 0 mm 4 m/s 732 mmHg 87%
    04:00 -1°C° 0 mm 4 m/s 732 mmHg 87%
    05:00 -1°C° 0 mm 4 m/s 732 mmHg 87%
    06:00 -2°C° 0 mm 4 m/s 732 mmHg 87%
    07:00 -1°C° 0 mm 5 m/s 733 mmHg 81%
    08:00 +1°C° 0 mm 6 m/s 733 mmHg 76%
    09:00 +2°C° 0 mm 7 m/s 734 mmHg 71%
    10:00 +3°C° 0 mm 7 m/s 734 mmHg 68%
    11:00 +4°C° 0 mm 7 m/s 734 mmHg 64%
    12:00 +5°C° 0 mm 7 m/s 735 mmHg 61%
    13:00 +5°C° 0.1 mm 6 m/s 735 mmHg 62%
    14:00 +5°C° 0.1 mm 6 m/s 735 mmHg 63%
    15:00 +5°C° 0.1 mm 6 m/s 736 mmHg 64%
    16:00 +5°C° 0.1 mm 5 m/s 736 mmHg 68%
    17:00 +3°C° 0.1 mm 5 m/s 737 mmHg 73%
    18:00 +1°C° 0.1 mm 4 m/s 737 mmHg 77%
    19:00 +1°C° 0 mm 4 m/s 738 mmHg 80%
    20:00 0°C° 0 mm 4 m/s 739 mmHg 83%
    21:00 -1°C° 0 mm 4 m/s 740 mmHg 86%
    22:00 -1°C° 0 mm 4 m/s 740 mmHg 86%
    23:00 -1°C° 0 mm 4 m/s 741 mmHg 86%

    3 Martie, Marţi

    Timp Temperatura Precipitaţii Vânt Presiune Umiditate
    00:00 -1°C° 0 mm 4 m/s 742 mmHg 85%
    01:00 -2°C° 0 mm 4 m/s 742 mmHg 85%
    02:00 -2°C° 0 mm 4 m/s 742 mmHg 85%
    03:00 -2°C° 0 mm 4 m/s 743 mmHg 85%
    04:00 -2°C° 0 mm 4 m/s 743 mmHg 85%
    05:00 -2°C° 0 mm 4 m/s 744 mmHg 85%
    06:00 -2°C° 0 mm 4 m/s 744 mmHg 85%
    07:00 -1°C° 0 mm 5 m/s 744 mmHg 81%
    08:00 0°C° 0 mm 5 m/s 745 mmHg 76%
    09:00 +1°C° 0 mm 5 m/s 746 mmHg 72%
    10:00 +2°C° 0 mm 5 m/s 746 mmHg 68%
    11:00 +3°C° 0 mm 5 m/s 746 mmHg 65%
    12:00 +5°C° 0 mm 5 m/s 746 mmHg 62%
    13:00 +5°C° 0.1 mm 5 m/s 746 mmHg 62%
    14:00 +6°C° 0.1 mm 5 m/s 746 mmHg 62%
    15:00 +6°C° 0.1 mm 4 m/s 746 mmHg 62%
    16:00 +5°C° 0 mm 4 m/s 746 mmHg 68%
    17:00 +3°C° 0 mm 3 m/s 746 mmHg 74%
    18:00 +3°C° 0 mm 2 m/s 746 mmHg 80%
    19:00 +3°C° 0 mm 2 m/s 746 mmHg 82%
    20:00 +2°C° 0 mm 2 m/s 747 mmHg 84%
    21:00 +2°C° 0 mm 2 m/s 747 mmHg 86%
    22:00 +1°C° 0 mm 2 m/s 747 mmHg 87%
    23:00 +2°C° 0 mm 1 m/s 747 mmHg 87%

    4 Martie, Miercuri

    Timp Temperatura Precipitaţii Vânt Presiune Umiditate
    00:00 +2°C° 0 mm 1 m/s 746 mmHg 88%
    01:00 +2°C° 0 mm 1 m/s 746 mmHg 88%
    02:00 +2°C° 0 mm 1 m/s 746 mmHg 88%
    03:00 +1°C° 0 mm 2 m/s 745 mmHg 89%
    04:00 +1°C° 0 mm 2 m/s 745 mmHg 88%
    05:00 0°C° 0 mm 3 m/s 744 mmHg 87%
    06:00 +1°C° 0 mm 3 m/s 744 mmHg 86%
    07:00 0°C° 0 mm 4 m/s 744 mmHg 84%
    08:00 +1°C° 0 mm 4 m/s 743 mmHg 81%
    09:00 +2°C° 0 mm 5 m/s 743 mmHg 79%
    10:00 +3°C° 0 mm 5 m/s 743 mmHg 78%
    11:00 +3°C° 0 mm 5 m/s 742 mmHg 78%
    12:00 +5°C° 0 mm 5 m/s 742 mmHg 77%
    13:00 +5°C° 0.1 mm 5 m/s 741 mmHg 77%
    14:00 +5°C° 0.1 mm 5 m/s 741 mmHg 77%
    15:00 +5°C° 0.1 mm 5 m/s 740 mmHg 77%
    16:00 +4°C° 0 mm 6 m/s 740 mmHg 79%
    17:00 +3°C° 0 mm 6 m/s 740 mmHg 82%
    18:00 +2°C° 0 mm 7 m/s 739 mmHg 84%
    19:00 +2°C° 0 mm 7 m/s 740 mmHg 85%
    20:00 +2°C° 0 mm 7 m/s 740 mmHg 86%
    21:00 +1°C° 0 mm 8 m/s 740 mmHg 86%
    22:00 0°C° 0 mm 7 m/s 741 mmHg 85%
    23:00 0°C° 0 mm 7 m/s 741 mmHg 83%
    Arată mai mult